When you browse on this site, cookies collect data to enhance your experience and personalize the content and advertising you see.
Visit our Privacy Policy to learn more. By continuing to use the site, you agree to this use of cookies and data.
  • Em Portugal
  • Lista de países
  • Para 7 dias
  • Temperatura da água
  • Mapa do tempo
  • Widgets de tempo
  • user-avatar
    Iniciar Sessão

    Previsão horária em Blevchicy

    Hoje, 28 Janeiro, Terça-feira

    Tempo Temperatura Precipitação Vento Pressão Humidade
    00:00 -2°C° 0 mm 2 m/s 744 mmHg 81%
    01:00 -2°C° 0 mm 2 m/s 744 mmHg 81%
    02:00 -2°C° 0 mm 2 m/s 744 mmHg 81%
    03:00 -1°C° 0 mm 2 m/s 743 mmHg 81%
    04:00 -1°C° 0 mm 2 m/s 743 mmHg 81%
    05:00 -1°C° 0 mm 2 m/s 743 mmHg 81%
    06:00 -1°C° 0 mm 2 m/s 743 mmHg 82%
    07:00 -1°C° 0 mm 2 m/s 742 mmHg 82%
    08:00 -1°C° 0 mm 2 m/s 742 mmHg 83%
    09:00 0°C° 0 mm 3 m/s 742 mmHg 82%
    10:00 0°C° 0 mm 3 m/s 742 mmHg 80%
    11:00 +1°C° 0 mm 3 m/s 742 mmHg 79%
    12:00 +1°C° 0 mm 3 m/s 741 mmHg 78%
    13:00 +2°C° 0 mm 3 m/s 741 mmHg 77%
    14:00 +2°C° 0 mm 3 m/s 740 mmHg 76%
    15:00 +2°C° 0 mm 3 m/s 740 mmHg 80%
    16:00 0°C° 0 mm 4 m/s 739 mmHg 84%
    17:00 -1°C° 0 mm 4 m/s 739 mmHg 87%
    18:00 -1°C° 0 mm 4 m/s 739 mmHg 88%
    19:00 -1°C° 0 mm 4 m/s 739 mmHg 90%
    20:00 -1°C° 0 mm 4 m/s 738 mmHg 91%
    21:00 -1°C° 0 mm 4 m/s 738 mmHg 92%
    22:00 -1°C° 0 mm 4 m/s 737 mmHg 93%
    23:00 -1°C° 0 mm 4 m/s 737 mmHg 94%

    Amanhã, 29 Janeiro, Quarta-feira

    Tempo Temperatura Precipitação Vento Pressão Humidade
    00:00 -1°C° 0 mm 4 m/s 737 mmHg 94%
    01:00 -1°C° 0 mm 4 m/s 736 mmHg 94%
    02:00 -1°C° 0 mm 4 m/s 736 mmHg 94%
    03:00 -1°C° 0 mm 4 m/s 735 mmHg 95%
    04:00 -1°C° 0 mm 4 m/s 734 mmHg 95%
    05:00 -2°C° 0 mm 4 m/s 734 mmHg 95%
    06:00 -2°C° 0 mm 4 m/s 733 mmHg 95%
    07:00 -2°C° 0 mm 4 m/s 733 mmHg 96%
    08:00 -2°C° 0 mm 4 m/s 733 mmHg 96%
    09:00 -1°C° 0.2 mm 4 m/s 733 mmHg 96%
    10:00 -1°C° 0.2 mm 4 m/s 732 mmHg 97%
    11:00 0°C° 0.2 mm 4 m/s 732 mmHg 97%
    12:00 +1°C° 0.6 mm 3 m/s 731 mmHg 97%
    13:00 +1°C° 0.6 mm 3 m/s 731 mmHg 98%
    14:00 +1°C° 0.6 mm 3 m/s 731 mmHg 98%
    15:00 +1°C° 1.5 mm 3 m/s 731 mmHg 98%
    16:00 +1°C° 1.5 mm 3 m/s 731 mmHg 98%
    17:00 +2°C° 1.5 mm 2 m/s 731 mmHg 98%
    18:00 +2°C° 0.7 mm 2 m/s 731 mmHg 98%
    19:00 +2°C° 0.7 mm 2 m/s 731 mmHg 98%
    20:00 +2°C° 0.7 mm 2 m/s 731 mmHg 98%
    21:00 +2°C° 0.5 mm 2 m/s 731 mmHg 98%
    22:00 +2°C° 0.5 mm 2 m/s 731 mmHg 98%
    23:00 +2°C° 0.5 mm 2 m/s 731 mmHg 98%

    Depois de amanhã, 30 Janeiro, Quinta-feira

    Tempo Temperatura Precipitação Vento Pressão Humidade
    00:00 +2°C° 0.9 mm 2 m/s 731 mmHg 98%
    01:00 +1°C° 0.9 mm 3 m/s 731 mmHg 98%
    02:00 +1°C° 0.9 mm 3 m/s 731 mmHg 98%
    03:00 +1°C° 0.7 mm 3 m/s 731 mmHg 97%
    04:00 0°C° 0.7 mm 4 m/s 731 mmHg 97%
    05:00 0°C° 0.7 mm 5 m/s 731 mmHg 97%
    06:00 0°C° 0.8 mm 5 m/s 732 mmHg 97%
    07:00 0°C° 0.8 mm 5 m/s 732 mmHg 97%
    08:00 -1°C° 0.8 mm 6 m/s 733 mmHg 96%
    09:00 -1°C° 0.8 mm 6 m/s 733 mmHg 96%
    10:00 -1°C° 0.8 mm 7 m/s 734 mmHg 96%
    11:00 -1°C° 0.8 mm 7 m/s 734 mmHg 96%
    12:00 -1°C° 0.2 mm 7 m/s 735 mmHg 95%
    13:00 -1°C° 0.2 mm 7 m/s 735 mmHg 95%
    14:00 -1°C° 0.2 mm 7 m/s 736 mmHg 94%
    15:00 -1°C° 0 mm 7 m/s 736 mmHg 94%
    16:00 -1°C° 0 mm 7 m/s 737 mmHg 94%
    17:00 -1°C° 0 mm 6 m/s 737 mmHg 94%
    18:00 -1°C° 0 mm 6 m/s 738 mmHg 92%
    19:00 0°C° 0 mm 5 m/s 738 mmHg 90%
    20:00 0°C° 0 mm 5 m/s 739 mmHg 88%
    21:00 0°C° 0 mm 5 m/s 739 mmHg 87%
    22:00 0°C° 0 mm 5 m/s 739 mmHg 87%
    23:00 0°C° 0 mm 5 m/s 739 mmHg 86%

    31 Janeiro, Sexta-feira

    Tempo Temperatura Precipitação Vento Pressão Humidade
    00:00 -1°C° 0 mm 4 m/s 739 mmHg 87%
    01:00 -1°C° 0 mm 4 m/s 739 mmHg 88%
    02:00 -2°C° 0 mm 4 m/s 739 mmHg 89%
    03:00 -2°C° 0 mm 4 m/s 739 mmHg 90%
    04:00 -2°C° 0 mm 4 m/s 739 mmHg 91%
    05:00 -2°C° 0 mm 4 m/s 739 mmHg 93%
    06:00 -2°C° 0 mm 4 m/s 738 mmHg 94%
    07:00 -1°C° 0 mm 4 m/s 738 mmHg 95%
    08:00 -1°C° 0 mm 4 m/s 737 mmHg 96%
    09:00 -1°C° 0.2 mm 4 m/s 737 mmHg 96%
    10:00 -1°C° 0.2 mm 4 m/s 737 mmHg 96%
    11:00 -1°C° 0.2 mm 4 m/s 736 mmHg 97%
    12:00 -1°C° 0.3 mm 4 m/s 736 mmHg 97%
    13:00 0°C° 0.3 mm 4 m/s 736 mmHg 97%
    14:00 0°C° 0.3 mm 4 m/s 735 mmHg 97%
    15:00 0°C° 0.1 mm 4 m/s 735 mmHg 97%
    16:00 0°C° 0.1 mm 4 m/s 735 mmHg 97%
    17:00 -1°C° 0.1 mm 4 m/s 734 mmHg 97%
    18:00 0°C° 0 mm 3 m/s 734 mmHg 97%
    19:00 0°C° 0 mm 3 m/s 734 mmHg 97%
    20:00 +1°C° 0 mm 2 m/s 734 mmHg 97%
    21:00 +1°C° 0.1 mm 2 m/s 734 mmHg 97%
    22:00 +1°C° 0.1 mm 2 m/s 734 mmHg 97%
    23:00 +1°C° 0.1 mm 2 m/s 734 mmHg 98%

    1 Fevereiro, Sábado

    Tempo Temperatura Precipitação Vento Pressão Humidade
    00:00 +2°C° 0.1 mm 2 m/s 735 mmHg 97%
    01:00 +1°C° 0.1 mm 3 m/s 735 mmHg 96%
    02:00 +1°C° 0.1 mm 3 m/s 736 mmHg 95%
    03:00 +1°C° 0 mm 3 m/s 736 mmHg 94%
    04:00 +1°C° 0 mm 3 m/s 737 mmHg 94%
    05:00 +1°C° 0 mm 3 m/s 737 mmHg 93%
    06:00 +1°C° 0 mm 3 m/s 737 mmHg 93%
    07:00 0°C° 0 mm 3 m/s 737 mmHg 94%
    08:00 0°C° 0 mm 3 m/s 738 mmHg 94%
    09:00 0°C° 0 mm 3 m/s 738 mmHg 93%
    10:00 +1°C° 0 mm 3 m/s 738 mmHg 91%
    11:00 +1°C° 0 mm 3 m/s 738 mmHg 89%
    12:00 +1°C° 0 mm 4 m/s 738 mmHg 89%
    13:00 +1°C° 0 mm 4 m/s 738 mmHg 89%
    14:00 +3°C° 0 mm 4 m/s 738 mmHg 89%
    15:00 +3°C° 0 mm 4 m/s 738 mmHg 91%
    16:00 +3°C° 0 mm 4 m/s 737 mmHg 93%
    17:00 +3°C° 0 mm 4 m/s 737 mmHg 95%
    18:00 +3°C° 0 mm 4 m/s 737 mmHg 95%
    19:00 +3°C° 0 mm 4 m/s 737 mmHg 96%
    20:00 +4°C° 0 mm 4 m/s 737 mmHg 97%
    21:00 +4°C° 0.2 mm 4 m/s 736 mmHg 97%
    22:00 +4°C° 0.2 mm 4 m/s 736 mmHg 97%
    23:00 +4°C° 0.2 mm 4 m/s 736 mmHg 97%

    2 Fevereiro, Domingo

    Tempo Temperatura Precipitação Vento Pressão Humidade
    00:00 +5°C° 0.2 mm 4 m/s 736 mmHg 97%
    01:00 +5°C° 0.2 mm 5 m/s 735 mmHg 96%
    02:00 +5°C° 0.2 mm 5 m/s 735 mmHg 96%
    03:00 +5°C° 0.3 mm 5 m/s 735 mmHg 96%
    04:00 +5°C° 0.3 mm 5 m/s 734 mmHg 96%
    05:00 +5°C° 0.3 mm 5 m/s 734 mmHg 96%
    06:00 +4°C° 1.2 mm 6 m/s 734 mmHg 93%
    07:00 +4°C° 1.2 mm 7 m/s 735 mmHg 90%
    08:00 +4°C° 1.2 mm 8 m/s 735 mmHg 88%
    09:00 +2°C° 0.1 mm 8 m/s 736 mmHg 83%
    10:00 +2°C° 0.1 mm 8 m/s 736 mmHg 78%
    11:00 +2°C° 0.1 mm 8 m/s 737 mmHg 72%
    12:00 +3°C° 0.1 mm 7 m/s 737 mmHg 72%
    13:00 +3°C° 0.1 mm 7 m/s 737 mmHg 71%
    14:00 +4°C° 0.1 mm 6 m/s 738 mmHg 70%
    15:00 +3°C° 0 mm 6 m/s 737 mmHg 72%
    16:00 +3°C° 0 mm 5 m/s 737 mmHg 74%
    17:00 +3°C° 0 mm 4 m/s 737 mmHg 76%
    18:00 +2°C° 0 mm 5 m/s 736 mmHg 77%
    19:00 +2°C° 0 mm 5 m/s 735 mmHg 79%
    20:00 +2°C° 0 mm 5 m/s 734 mmHg 80%
    21:00 +2°C° 0.5 mm 6 m/s 732 mmHg 84%
    22:00 +3°C° 0.5 mm 6 m/s 731 mmHg 88%
    23:00 +3°C° 0.5 mm 7 m/s 730 mmHg 92%
    Mostrar mais